TimeMST,TemperatureF,Dew PointF,Humidity,Sea Level PressureIn,VisibilityMPH,Wind Direction,Wind SpeedMPH,Gust SpeedMPH,PrecipitationIn,Events,Conditions,WindDirDegrees,DateUTC
12:07 AM,15.8,10.4,79,29.85,2.5,West,13.8,26.5,0.00,Snow,Light Snow,270,2013-12-10 07:07:00
12:18 AM,15.8,10.4,79,29.85,3.0,West,11.5,-,0.00,Snow,Light Snow,270,2013-12-10 07:18:00
12:44 AM,15.8,10.4,79,29.85,3.0,West,10.4,20.7,0.00,Snow,Light Snow,270,2013-12-10 07:44:00
12:53 AM,15.1,10.9,84,30.09,2.5,WSW,8.1,-,0.00,Snow,Light Snow,250,2013-12-10 07:53:00
1:33 AM,15.8,10.4,79,29.85,1.5,West,9.2,-,0.00,Snow,Light Snow,270,2013-12-10 08:33:00
1:47 AM,14.0,10.4,86,29.86,2.0,West,10.4,17.3,0.00,Snow,Light Snow,260,2013-12-10 08:47:00
1:53 AM,14.0,10.0,84,30.09,2.0,WSW,9.2,19.6,0.01,Snow,Light Snow,240,2013-12-10 08:53:00
1:58 AM,14.0,10.4,86,29.86,1.8,Variable,6.9,19.6,0.00,Snow,Light Snow,0,2013-12-10 08:58:00
2:07 AM,14.0,10.4,86,29.85,1.5,West,10.4,20.7,0.00,Snow,Light Snow,270,2013-12-10 09:07:00
2:26 AM,12.2,8.6,85,29.85,1.8,West,9.2,-,0.00,Snow,Light Snow,260,2013-12-10 09:26:00
2:35 AM,12.2,8.6,85,29.84,2.0,WSW,6.9,-,0.00,Snow,Light Snow,240,2013-12-10 09:35:00
2:42 AM,12.2,8.6,85,29.84,2.5,West,5.8,-,0.00,Snow,Light Snow,270,2013-12-10 09:42:00
2:53 AM,12.0,8.1,84,30.07,4.0,West,5.8,-,0.00,Snow,Light Snow,270,2013-12-10 09:53:00
3:01 AM,12.2,8.6,85,29.84,6.0,Variable,5.8,-,0.00,Snow,Light Snow,0,2013-12-10 10:01:00
3:53 AM,12.0,7.0,80,30.05,10.0,South,4.6,-,0.00,,Overcast,190,2013-12-10 10:53:00
4:53 AM,14.0,7.0,74,30.03,10.0,WSW,9.2,-,N/A,,Clear,240,2013-12-10 11:53:00
5:53 AM,10.9,3.9,73,30.02,10.0,West,9.2,-,N/A,,Clear,270,2013-12-10 12:53:00
6:53 AM,12.0,3.0,67,30.01,10.0,West,11.5,-,N/A,,Clear,280,2013-12-10 13:53:00
7:53 AM,12.9,3.0,65,29.99,10.0,West,8.1,-,N/A,,Clear,260,2013-12-10 14:53:00
8:53 AM,15.1,5.0,64,30.00,10.0,West,9.2,-,N/A,,Clear,280,2013-12-10 15:53:00
9:53 AM,17.1,7.0,65,30.02,10.0,WNW,9.2,19.6,N/A,,Clear,290,2013-12-10 16:53:00
10:16 AM,17.6,8.6,68,29.83,10.0,West,10.4,-,N/A,,Mostly Cloudy,280,2013-12-10 17:16:00
10:53 AM,19.0,12.0,74,30.00,3.0,West,11.5,-,0.00,Snow,Light Snow,270,2013-12-10 17:53:00
11:32 AM,19.4,14.0,80,29.82,6.0,West,12.7,17.3,0.00,Snow,Light Snow,270,2013-12-10 18:32:00
11:47 AM,19.4,14.0,80,29.81,2.5,West,10.4,-,0.00,Snow,Light Snow,280,2013-12-10 18:47:00
11:53 AM,21.0,15.1,78,29.98,1.2,West,11.5,-,0.00,Snow,Light Snow,280,2013-12-10 18:53:00
12:07 PM,21.2,15.8,80,29.82,3.0,WNW,13.8,21.9,0.00,Snow,Light Snow,300,2013-12-10 19:07:00
12:53 PM,21.9,12.9,68,29.99,9.0,WNW,11.5,23.0,0.00,,Overcast,290,2013-12-10 19:53:00
1:35 PM,21.2,15.8,80,29.82,2.5,WNW,8.1,18.4,0.00,Snow,Light Snow,290,2013-12-10 20:35:00
1:50 PM,21.2,15.8,80,29.83,3.0,West,11.5,19.6,0.00,Snow,Light Snow,280,2013-12-10 20:50:00
1:53 PM,21.0,14.0,74,30.01,3.0,WNW,12.7,20.7,0.00,Snow,Light Snow,300,2013-12-10 20:53:00
2:53 PM,21.0,12.9,71,30.05,7.0,West,11.5,18.4,0.00,,Overcast,280,2013-12-10 21:53:00
3:01 PM,21.2,12.2,68,29.87,4.0,Variable,5.8,-,0.00,Snow,Light Snow,0,2013-12-10 22:01:00
3:20 PM,21.2,12.2,68,29.88,9.0,Variable,3.5,-,0.00,,Overcast,0,2013-12-10 22:20:00
3:36 PM,19.4,12.2,74,29.89,3.0,North,9.2,17.3,0.00,Snow,Light Snow,350,2013-12-10 22:36:00
3:53 PM,19.9,10.9,68,30.10,10.0,NW,6.9,-,0.00,,Overcast,320,2013-12-10 22:53:00
4:02 PM,19.4,12.2,74,29.91,10.0,NW,5.8,-,N/A,,Overcast,310,2013-12-10 23:02:00
4:53 PM,18.0,10.0,71,30.14,8.0,NNW,10.4,16.1,0.00,Snow,Light Snow,330,2013-12-10 23:53:00
5:53 PM,15.1,3.9,61,30.20,10.0,North,6.9,-,0.00,,Mostly Cloudy,350,2013-12-11 00:53:00
6:53 PM,12.0,3.0,67,30.26,10.0,NNW,4.6,-,N/A,,Scattered Clouds,340,2013-12-11 01:53:00
7:53 PM,10.0,-0.0,64,30.30,10.0,Variable,5.8,-,N/A,,Clear,0,2013-12-11 02:53:00
8:53 PM,9.0,-2.0,61,30.33,10.0,North,4.6,-,N/A,,Mostly Cloudy,350,2013-12-11 03:53:00
9:53 PM,9.0,-2.0,61,30.34,10.0,NW,4.6,-,N/A,,Clear,320,2013-12-11 04:53:00
10:53 PM,7.0,-2.0,67,30.35,10.0,WNW,4.6,-,N/A,,Mostly Cloudy,290,2013-12-11 05:53:00
11:53 PM,6.1,-2.9,67,30.35,10.0,Calm,Calm,-,N/A,,Mostly Cloudy,0,2013-12-11 06:53:00